Location: Hauppauge
(40.8260°N, 73.2030°W)
Time: 07:46:59
(UTC-04:00)

Daily predictions for brighter satellites

Satellite Brightness Start Highest point End
(mag) Time Altitude Azimuth Time Altitude Azimuth Time Altitude Azimuth
Cosmos 1602 Rocket 4.3 20:39:34 10° SSE 20:43:39 36° E 20:47:45 10° NNE
Cosmos 1939 Rocket 3.8 20:40:55 10° SE 20:44:39 33° ENE 20:48:23 10° N
Cosmos 2285 Rocket 4.1 20:38:49 10° NNW 20:45:10 89° WSW 20:51:32 10° SSE
SeaSat 1 3.7 20:42:45 10° ESE 20:46:53 28° NE 20:51:03 10° N
Lacrosse 5 rocket 3.8 20:44:04 10° W 20:47:22 25° NNW 20:50:46 10° NNE
Cosmos 1331 Rocket 4.4 20:43:29 10° NNW 20:48:38 64° WSW 20:53:44 10° S
FENGYUN 3A 3.9 20:43:38 10° S 20:48:59 75° WSW 20:54:24 10° NNW
BREEZE-M DEB (TANK) 1.7 20:46:17 10° NW 20:49:17 88° NE 20:51:22 10° SE
COSMOS 2455 3.3 20:44:40 10° S 20:50:08 38° ESE 20:55:37 10° NE
Cosmos 1464 Rocket 4.0 20:45:40 10° N 20:51:49 78° E 20:58:00 10° S
SJ-11-01 4.4 20:47:48 10° SSE 20:52:23 64° ENE 20:57:02 10° N
Cosmos 2297 4.5 20:47:48 10° NNW 20:53:21 53° WSW 20:58:52 10° S
Meteor 2-4 Rocket 4.0 20:47:55 10° S 20:53:47 86° W 20:59:46 10° N
Cosmos 1812 Rocket 4.5 20:50:37 10° NNE 20:54:34 32° ENE 20:58:31 10° SE
YAOGAN 11 4.3 20:50:47 10° S 20:55:07 74° WSW 20:59:27 10° NNW
GEOS 3 Rocket 3.8 20:51:10 10° SSE 20:56:26 77° SW 21:01:41 10° NW
Aureole 2 Rocket 2.9 20:54:24 10° SSW 20:58:18 72° WNW 21:01:51 10° NNE
Cosmos 1943 Rocket 4.4 20:57:58 10° NNE 20:59:32 11° NE 21:01:06 10° ENE
Cosmos 1943 4.3 20:55:08 10° SSE 20:59:36 25° ESE 21:04:05 10° NE
Cosmos 1302 Rocket 4.1 20:55:09 10° NNW 21:00:25 86° WSW 21:05:41 10° SSE
deb Chang Zheng 4 3.6 20:56:13 10° NNE 21:00:36 70° ESE 21:04:58 10° S
ATLAS 3B R/B 3.7 20:57:32 10° SSE 21:03:58 30° ESE 21:10:20 10° NE
H-2A R/B 2.0 21:03:18 10° SSE 21:07:33 86° ENE 21:11:57 10° NNW
H-2A R/B 4.2 21:04:01 10° SSW 21:07:44 39° W 21:11:28 10° NNW
Cosmos 2034 Rocket 4.1 21:05:21 10° N 21:11:46 83° E 21:18:05 10° S
DEBRIS 2.6 21:08:27 10° WNW 21:14:09 73° SW 21:15:58 16° SE
Cosmos 1626 Rocket 3.5 21:11:20 10° S 21:15:46 82° E 21:20:12 10° N
Abrixas rocket 3.9 21:15:44 10° W 21:18:36 25° SW 21:21:08 12° SSE
GRACE-1 3.9 21:16:42 10° N 21:19:34 63° E 21:22:03 13° S
Cosmos 2228 3.6 21:15:20 10° NNW 21:19:41 59° W 21:24:00 10° S
GRACE-2 3.9 21:17:09 10° N 21:20:01 63° E 21:22:29 13° S
USA 234 3.9 21:16:47 10° ESE 21:23:02 49° NNE 21:29:18 10° NW
ERS-1 Rocket 3.6 21:18:48 10° S 21:23:43 57° W 21:28:40 10° NNW
ISS -3.5 21:21:09 10° SW 21:24:25 80° SE 21:27:41 10° NE
UNK 4.4 21:23:13 10° NNE 21:28:35 55° ESE 21:34:12 10° S
ALOS 4.3 21:26:19 10° SSW 21:30:08 25° W 21:34:00 10° NW
Lacrosse 4 Rocket 2.3 21:30:12 17° SSE 21:32:15 26° ESE 21:35:41 10° NE
Milstar 3 Cent rocket 4.2 21:28:37 10° WSW 21:32:26 14° SW 21:35:28 10° S
PSLV R/B 3.3 21:29:23 10° WSW 21:32:56 82° SSE 21:36:20 11° E
Envisat 3.0 21:28:22 11° SSE 21:33:17 89° WSW 21:38:24 10° NNW
Nimbus 7 Rocket 4.5 21:28:44 10° NNE 21:34:44 85° WNW 21:40:37 10° SSW
ARGOS 3.9 21:32:56 17° SE 21:36:35 39° ENE 21:41:35 10° N
Cosmos 407 Rocket 4.3 21:33:01 15° SSE 21:36:36 32° E 21:41:12 10° NE
SPOT 5 2.6 21:34:22 14° SSE 21:38:04 89° E 21:42:26 10° NNW
CZ-2C R/B 3.5 21:37:36 10° WSW 21:38:39 12° W 21:39:42 10° WNW
Cosmos 2369 Rocket 2.5 21:37:41 10° NNW 21:43:15 54° ENE 21:46:53 21° SE
Cosmos 1238 4.2 21:42:00 12° S 21:44:48 79° W 21:47:49 10° N
CZ-4 SHROUD 3.8 21:43:52 17° S 21:46:06 54° W 21:49:13 10° NNW
MetOp-B 4.1 21:45:58 17° SSE 21:50:08 86° ENE 21:55:31 10° NNW
Terra 3.4 21:48:14 16° E 21:50:22 21° ENE 21:53:56 10° NNE
NOAA 11 4.5 21:53:20 23° SE 21:56:30 53° ENE 22:01:46 10° N
USA 81 4.0 21:58:38 10° N 22:03:57 85° E 22:07:23 23° S
Atlas Centaur 2 3.5 21:58:16 10° WSW 22:05:12 39° S 22:09:41 23° SE
Cosmos 1758 Rocket 3.6 22:06:49 31° SSE 22:08:41 57° E 22:12:58 10° NNE
CZ-4C R/B 3.8 22:07:54 34° SE 22:09:22 51° ENE 22:13:19 10° N
Cosmos 1992 Rocket 4.2 22:04:35 10° NNW 22:09:47 68° WSW 22:12:51 25° S
Cosmos 2263 4.3 22:06:05 10° NNW 22:11:41 66° ENE 22:14:26 30° SE
DELTA 2 DEB (DPAF) 4.3 22:11:56 34° SE 22:13:40 59° ENE 22:18:07 10° N
Cosmos 1900 4.3 22:11:17 11° SSW 22:16:15 68° ESE 22:21:23 10° NE
COSMOS 2406 4.2 22:15:40 26° ESE 22:16:21 27° ESE 22:21:03 10° NE
YAOGAN 6 3.2 22:17:10 29° SSW 22:18:46 53° W 22:22:27 10° NNW
Cosmos 1066 Rocket 4.4 22:16:11 12° SSW 22:21:25 73° W 22:27:15 10° N
Meteor 1-22 Rocket 4.2 22:16:07 10° N 22:21:45 90° W 22:24:51 29° S
SeaSat 1 3.3 22:21:30 22° S 22:24:14 42° WSW 22:28:54 10° NW
Cosmos 1825 Rocket 4.3 22:22:15 15° SSW 22:25:45 52° W 22:30:06 10° N
Geosat 4.0 22:21:27 10° NNE 22:26:26 61° ESE 22:28:49 30° S
Cosmos 1953 3.2 22:23:25 10° N 22:27:05 34° ENE 22:27:23 33° E
H-2A R/B 2.2 22:26:31 36° SE 22:28:12 53° ENE 22:33:07 10° N
Cosmos 1190 Rocket 4.4 22:26:13 10° SSW 22:31:28 63° WNW 22:36:46 10° NNE
COSMOS 2455 4.3 22:30:31 10° WSW 22:36:02 37° NW 22:41:35 10° NNE
SPOT 1/Viking Rocket 4.2 22:34:20 24° SSW 22:37:08 48° W 22:42:08 10° NNW
SAR-Lupe-2 3.4 22:40:04 71° E 22:40:10 72° ENE 22:43:46 10° N
Cosmos 1943 4.2 22:37:52 10° SW 22:43:19 47° WNW 22:48:48 10° NNE
Cosmos 1346 Rocket 3.9 22:41:40 22° SW 22:43:44 40° WNW 22:47:28 10° N
Cosmos 1943 Rocket 2.2 22:38:51 10° NNW 22:44:23 66° ENE 22:46:09 43° SE
Cosmos 676 Rocket 4.1 22:44:54 23° SSW 22:48:17 75° WNW 22:53:39 10° NNE
Cosmos 1140 Rocket 3.6 22:48:29 48° SE 22:49:23 55° ESE 22:54:30 10° NNE
Nadezhda 4 Rocket 4.2 22:47:43 40° SSE 22:49:46 57° E 22:55:57 10° NNE
ATLAS 3B R/B 3.4 22:46:40 10° SW 22:54:19 63° NW 23:01:47 10° NNE
Spot 2 4.3 22:49:41 10° NNE 22:54:32 80° ESE 22:55:50 50° S
Cosmos 1842 3.4 22:54:29 61° SW 22:54:59 70° W 22:58:55 10° N
Cosmos 1656 Rocket 4.4 22:52:00 10° N 22:57:23 42° ENE 22:59:04 33° E
DMSP B5D2-2 4.0 22:52:07 10° NNE 22:57:26 81° ESE 22:58:58 48° S
IGS 5A 3.3 22:58:19 75° S 22:58:39 88° WSW 23:02:50 10° NNW
ISS -0.5 22:58:40 10° WNW 23:01:11 20° NNW 23:03:41 10° NNE
USA 234 3.5 23:03:51 39° S 23:05:57 54° SW 23:12:22 10° NW
Cosmos 2084 3.4 23:02:28 10° NNW 23:06:37 70° NE 23:06:47 69° ENE
Lacrosse 4 Rocket 3.4 23:07:27 10° WSW 23:10:54 26° NW 23:14:24 10° N
CZ-4C R/B 3.5 23:13:38 23° E 23:13:38 23° E 23:16:51 10° ENE
Cosmos 1758 3.5 23:09:29 10° NNW 23:13:34 67° W 23:13:37 67° W
Cosmos 614 Rocket 4.0 23:16:09 60° ESE 23:16:19 60° ESE 23:21:27 10° NNE
COSMOS 2487 4.3 23:18:17 24° NE 23:18:17 24° NE 23:19:58 10° NNE
Spot 4 3.9 23:17:06 58° SW 23:17:45 66° WSW 23:22:30 10° NNW
Meteor 2-5 Rocket 4.1 23:17:29 47° ESE 23:18:07 49° E 23:23:41 10° NNE
SL-27 R/B 3.7 23:20:32 38° NW 23:20:32 38° NW 23:23:24 10° N
Cosmos 2221 3.9 23:17:48 10° NNE 23:21:11 28° ENE 23:21:11 28° ENE
Cosmos-2242 3.9 23:20:18 10° NNW 23:24:26 40° W 23:24:56 38° WSW
Cosmos 2369 Rocket 3.9 23:22:42 10° NW 23:26:48 21° W 23:28:41 18° SW
Terra 2.6 23:27:07 39° WSW 23:27:50 41° W 23:32:20 10° NNW
Cosmos 2026 Rocket 4.3 23:28:52 44° ESE 23:29:32 45° E 23:35:15 10° NNE
Cosmos 1607 3.8 23:29:24 46° SSW 23:31:25 85° ESE 23:37:40 10° NNE
USA 238 DEB 3.9 23:28:44 19° SW 23:34:07 75° NW 23:41:13 10° NNE
USA 238 3.8 23:28:57 20° SW 23:34:13 76° NW 23:41:19 10° NNE
Cosmos 1627 Rocket 4.5 23:35:59 55° SE 23:36:48 60° E 23:42:49 10° NNE
Cosmos 2208 Rocket 4.0 23:35:17 10° NNW 23:40:25 64° WSW 23:40:44 63° SW
CZ-4B R/B 3.6 23:44:03 22° NE 23:44:03 22° NE 23:46:13 10° NNE
Okean 3 Rocket 3.7 23:43:49 70° NNE 23:43:49 70° NNE 23:47:46 10° N
Cosmos 1470 3.5 23:42:11 10° N 23:45:11 51° NNW 23:45:11 51° NNW
Meteor 1-16 Rocket 4.3 23:43:44 10° N 23:49:20 63° ENE 23:49:54 60° ESE
Cosmos 1340 3.7 23:51:21 45° NNW 23:51:21 45° NNW 23:54:08 10° N
